• Join FlightAware (Why Join?)
  • Login
  • US Flag 
12:08PM EDT


 

Airport Tracker/Info


-or-


 

Live Flight TrackerFlight Track Log ✈ EJA929 ✈ 23-May-2013 ✈ KDAL - KSAT

Flight Track Log - Related Links

Times and Time Zones

All times are in EDT time to prevent confusion due to time zone crossing. See the EJA929 flight status page for this flight to view local times or setup timezone preferences in your user account.

Time Position Orientation Groundspeed Altitude Reporting Facility
EDT Latitude Longitude Course Direction KTS MPH feet Rate Location/Type
09:21PM 32.8333 -96.8333 132° Southeast 171 197 1,400  Level Dallas / Fort Worth TRACON
09:22PM 32.7833 -96.7667 132° Southeast 266 306 5,700 2,820 Climbing Dallas / Fort Worth TRACON
09:23PM 32.7000 -96.7667 180° South 264 304 8,000 1,440 Climbing Dallas / Fort Worth TRACON
09:24PM 32.6333 -96.8167 212° Southwest 281 323 8,600 1,380 Climbing Dallas / Fort Worth TRACON
09:25PM 32.5711 -96.8292 190° South 286 329 10,600 1,740 Climbing Fort Worth Center
09:26PM 32.4814 -96.8519 192° South 320 368 11,800 1,320 Climbing Fort Worth Center
09:27PM 32.3833 -96.8747 191° South 350 403 13,300 1,680 Climbing Fort Worth Center
09:28PM 32.2917 -96.8972 192° South 377 434 15,200 1,740 Climbing Fort Worth Center
09:29PM 32.1769 -96.9275 193° South 377 434 16,800 1,200 Climbing Fort Worth Center
09:30PM 32.0789 -96.9500 191° South 388 447 17,700 1,020 Climbing Fort Worth Center
09:31PM 31.9494 -96.9825 192° South 418 481 18,900 1,020 Climbing Fort Worth Center
09:32PM 31.8411 -97.0097 192° South 442 509 19,800 660 Climbing Fort Worth Center
09:33PM 31.7619 -97.0275 191° South 450 518 20,000 120 Climbing Houston Center
09:34PM 31.6339 -97.0581 191° South 462 532 20,000  Level Houston Center
09:35PM 31.5072 -97.0914 193° South 462 532 20,000  Level Houston Center
09:36PM 31.3847 -97.1400 199° South 458 527 20,000  Level Houston Center
09:37PM 31.2636 -97.1881 199° South 456 525 20,000  Level Houston Center
09:38PM 31.1428 -97.2356 199° South 454 522 20,000  Level Houston Center
09:39PM 31.0256 -97.2906 202° Southwest 455 524 20,000  Level Houston Center
09:40PM 30.8922 -97.3581 203° Southwest 460 529 20,000  Level Houston Center
09:41PM 30.7764 -97.4169 204° Southwest 455 524 20,000  Level Houston Center
09:42PM 30.6600 -97.4761 204° Southwest 452 520 20,000  Level Houston Center
09:43PM 30.5433 -97.5361 204° Southwest 453 521 20,000  Level Houston Center
09:44PM 30.4272 -97.5944 203° Southwest 451 519 20,000  Level Houston Center
09:45PM 30.3106 -97.6542 204° Southwest 453 521 20,000 -420 Level Houston Center
09:46PM 30.1944 -97.7122 203° Southwest 451 519 19,200 -1,620 Descending Houston Center
09:47PM 30.0750 -97.7717 203° Southwest 450 518 16,800 -2,580 Descending Houston Center
09:48PM 29.9528 -97.8331 204° Southwest 446 513 14,200 -2,340 Descending Houston Center
09:49PM 29.8728 -97.9181 223° Southwest 382 440 12,200 -1,860 Descending Houston Center
09:50PM 29.8317 -98.0172 244° Southwest 329 379 10,500 -1,500 Descending Houston Center
09:51PM 29.7942 -98.1086 245° Southwest 303 349 9,200 -1,680 Descending Houston Center
09:52PM 29.7581 -98.1925 244° Southwest 290 334 7,200 -1,680 Descending Houston Center
09:53PM 29.7272 -98.2683 245° Southwest 285 328 6,000 -1,560 Descending Houston Center
09:54PM 29.7097 -98.3500 256° West 269 310 4,300 -1,500 Descending Houston Center
09:55PM 29.6947 -98.4383 259° West 274 315 3,000 -1,080 Descending Houston Center
09:55PM 29.6914 -98.4497 251° West 274 315 3,000  Level Houston Center
09:56PM 29.6794 -98.5244 260° West 279 321 3,000  Level Houston Center
09:56PM 29.6753 -98.5497 259° West 278 320 3,000 -240 Level Houston Center
09:57PM 29.6489 -98.6050 241° Southwest 265 305 2,800 -240 Descending Houston Center
09:57PM 29.6344 -98.6014 168° South 248 285 2,800 -300 Level Houston Center
09:58PM 29.6033 -98.5647 134° Southeast 167 192 2,500 -540 Descending Houston Center
09:59PM 29.5769 -98.5294 131° Southeast 133 153 1,800 -660 Descending Houston Center
10:00PM 29.5533 -98.5011 134° Southeast 122 140 1,200 -600 Descending Houston Center
10:02PM 29.5340 -98.4691 192° South  Level Estimated
10:09PM 29.5333 -98.4667 16° North  Level FlightAware Approximate
10:10PM 29.5340 -98.4691 16° North  Level Estimated